Simultaneous Nadir Overpasses (SNOs) Predictions

Prediction of SNOs between GOES-16 and NPP Satellite Orbit:

Table of predicted SNOs for the next 14.0 days since TLE Epoch: 6/1/2019
Index Date Time (GOES-16) GOES-16 Lat,Lon NPP Lat,Lon Distance(km) Time Diff (sec)
1 06/01/2019 06:10:59 0.01, -75.20 -0.70, -71.95 369.47 80
2 06/02/2019 18:32:56 -0.01, -75.20 -0.46, -77.26 234.18 80
3 06/03/2019 18:16:52 -0.01, -75.21 0.53, -72.73 282.45 80
4 06/05/2019 06:38:41 0.00, -75.21 0.60, -78.01 318.32 80
5 06/06/2019 06:17:16 -0.00, -75.21 -0.40, -73.47 198.28 80
6 06/07/2019 18:39:14 0.01, -75.22 -0.76, -78.78 405.18 80
7 06/08/2019 18:23:09 0.01, -75.23 0.24, -74.25 111.83 80
8 06/10/2019 06:44:57 -0.01, -75.24 0.96, -79.52 487.81 80
9 06/11/2019 06:23:34 -0.01, -75.25 -0.10, -75.00 29.78 80
10 06/13/2019 18:26:46 0.02, -75.29 -0.11, -75.76 54.61 80
11 06/14/2019 18:10:42 0.02, -75.31 0.95, -71.24 463.49 80




NCC Satellite Simultaneous Nadir Overpasses (SNOs) Prediction Service
